User: anonymous
Location: Black Swamp Observatory
(41.3920°N, 84.1250°W)
Time: 22:47:14
(UTC-04:00)
Language:

MaSat-1 - Orbit

View from above orbital plane
View from above orbital plane
View from above satellite
View from above satellite

Ground track
Ground track

The orbit data is extracted from the following two-line orbital elements,

1 38081U 12006E   14110.77708568  .00117154  57013-5  16086-2 0  9661
2 38081 069.4505 141.1576 0414064 078.0417 040.6442 14.96252699114843
Epoch (UTC): 20 April 2014 18:39:00
Eccentricity: 0.0414064
inclination: 69.4505°
perigee height: 290 km
apogee height: 866 km
right ascension of ascending node: 141.1576°
argument of perigee: 78.0417°
revolutions per day: 14.96252699
mean anomaly at epoch: 40.6442°
orbit number at epoch: 11484

The dashed part of the orbit path shows where the satellite is in the earth's shadow,  

DLR